Houston, TX

12:28 PM CST on February 10, 2016 (GMT -0600)
Houston / Dunn Helistop

Weather History for KMCJ - January, 2014

Change the Weather History Date:

Monday, January 20, 2014

  Actual Average (KHOU) Record (KHOU)
Temperature  
Mean Temperature 66 °F 53 °F  
Max Temperature 77 °F 63 °F 81 °F (2012)
Min Temperature 55 °F 43 °F 20 °F (1985)
Degree Days  
Heating Degree Days 0 12  
Month to date heating degree days 258  
Since 1 July heating degree days 797  
Cooling Degree Days 1    
Growing Degree Days 16 (Base 50)    
Moisture  
Dew Point 54 °F    
Average Humidity 74    
Maximum Humidity 100    
Minimum Humidity 41    
Precipitation  
Precipitation 0.00 in 0.11 in 1.83 in (1958)
Month to date precipitation 2.14  
Year to date precipitation 2.14  
Sea Level Pressure  
Sea Level Pressure 29.98 in    
Wind  
Wind Speed 5 mph (SW)    
Max Wind Speed 17 mph    
Max Gust Speed 28 mph    
Visibility 10 miles    
Events      
T = Trace of Precipitation, MM = Missing Value Source: NWS Daily Summary

Daily Weather History Graph

Daily Weather History Graph

Search for Another Location

Airport or City:

Trip Planner

Search our weather history database for the weather conditions in past years. The results will help you decide how hot, cold, wet, or windy it might be!

Date:

Astronomy

Jan. 20, 2014 Rise Set
Actual Time 7:16 AM CST 5:49 PM CST
Civil Twilight 6:51 AM CST 6:14 PM CST
Nautical Twilight 6:21 AM CST 6:43 PM CST
Astronomical Twilight 5:53 AM CST 7:12 PM CST
Moon 10:01 PM CST (1/20) 9:38 AM CST (1/20)
Length of Visible Light 11h 23m
Length of Day
10h 32m
Waning Gibbous, 82% of the Moon is Illuminated
Jan 20
Waning Gibbous
Jan 23
Last Quarter
Jan 30
New
Feb 6
First Quarter
Feb 14
Full

Hourly Weather History & Observations

Time (CST) Temp. Dew Point Humidity Pressure Visibility Wind Dir Wind Speed Gust Speed Precip Events Conditions
12:15 AM 55.4 °F 44.6 °F 67% 30.10 in 10.0 mi South 5.8 mph - N/A   Clear
12:35 AM 55.4 °F 44.6 °F 67% 30.09 in 10.0 mi South 5.8 mph - N/A   Clear
12:55 AM 55.4 °F 44.6 °F 67% 30.09 in 10.0 mi Calm Calm - N/A   Clear
1:35 AM 55.4 °F 46.4 °F 72% 30.08 in 10.0 mi Calm Calm - N/A   Clear
1:55 AM 55.4 °F 46.4 °F 72% 30.07 in 10.0 mi South 4.6 mph - N/A   Clear
2:15 AM 55.4 °F 48.2 °F 77% 30.07 in 10.0 mi Calm Calm - N/A   Clear
2:35 AM 55.4 °F 48.2 °F 77% 30.07 in 10.0 mi South 3.5 mph - N/A   Clear
2:55 AM 55.4 °F 48.2 °F 77% 30.06 in 10.0 mi Calm Calm - N/A   Clear
3:15 AM 55.4 °F 50.0 °F 82% 30.06 in 10.0 mi Calm Calm - N/A   Clear
3:35 AM 55.4 °F 50.0 °F 82% 30.05 in 10.0 mi Calm Calm - N/A   Clear
3:55 AM 55.4 °F 53.6 °F 94% 30.04 in 10.0 mi SSW 3.5 mph - N/A   Clear
4:15 AM 55.4 °F 53.6 °F 94% 30.04 in 10.0 mi Calm Calm - N/A   Clear
4:35 AM 55.4 °F 53.6 °F 94% 30.03 in 10.0 mi Calm Calm - N/A   Clear
4:55 AM 55.4 °F 53.6 °F 94% 30.03 in 10.0 mi Calm Calm - N/A   Clear
5:15 AM 55.4 °F 53.6 °F 94% 30.02 in 10.0 mi Calm Calm - N/A   Clear
5:35 AM 55.4 °F 53.6 °F 94% 30.02 in 10.0 mi South 4.6 mph - N/A   Clear
5:55 AM 55.4 °F 53.6 °F 94% 30.02 in 7.0 mi South 3.5 mph - N/A   Partly Cloudy
6:15 AM 55.4 °F 55.4 °F 100% 30.02 in 5.0 mi Calm Calm - N/A   Mostly Cloudy
6:35 AM 57.2 °F 55.4 °F 94% 30.02 in 2.0 mi SSW 4.6 mph - N/A   Overcast
6:55 AM 55.4 °F 55.4 °F 100% 30.02 in 4.0 mi SSW 8.1 mph - N/A   Scattered Clouds
7:15 AM 55.4 °F 55.4 °F 100% 30.02 in 7.0 mi SSW 6.9 mph - N/A   Clear
7:35 AM 55.4 °F 55.4 °F 100% 30.01 in 9.0 mi Calm Calm - N/A   Clear
7:55 AM 55.4 °F 55.4 °F 100% 30.02 in 9.0 mi SW 5.8 mph - N/A   Clear
8:15 AM 57.2 °F 55.4 °F 94% 30.03 in 10.0 mi SSW 5.8 mph - N/A   Clear
8:35 AM 57.2 °F 55.4 °F 94% 30.03 in 10.0 mi SSW 8.1 mph - N/A   Clear
8:55 AM 59.0 °F 57.2 °F 94% 30.03 in 10.0 mi SSW 9.2 mph - N/A   Clear
9:15 AM 59.0 °F 57.2 °F 94% 30.03 in 8.0 mi SSW 5.8 mph - N/A   Clear
9:35 AM 59.0 °F 57.2 °F 94% 30.03 in 9.0 mi SW 8.1 mph - N/A   Clear
9:55 AM 60.8 °F 57.2 °F 88% 30.03 in 10.0 mi Calm Calm - N/A   Clear
10:15 AM 64.4 °F 59.0 °F 83% 30.04 in 10.0 mi Calm Calm - N/A   Scattered Clouds
10:35 AM 66.2 °F 59.0 °F 78% 30.03 in 10.0 mi SW 11.5 mph 24.2 mph N/A   Scattered Clouds
10:55 AM 68.0 °F 57.2 °F 68% 30.03 in 10.0 mi SW 9.2 mph 20.7 mph N/A   Clear
11:15 AM 68.0 °F 55.4 °F 64% 30.01 in 10.0 mi SSW 12.7 mph 19.6 mph N/A   Clear
11:35 AM 69.8 °F 55.4 °F 60% 30.01 in 10.0 mi SW 12.7 mph 27.6 mph N/A   Clear
11:55 AM 71.6 °F 55.4 °F 57% 29.99 in 10.0 mi SSW 15.0 mph 25.3 mph N/A   Clear
12:15 PM 71.6 °F 53.6 °F 53% 29.97 in 10.0 mi SSW 17.3 mph 27.6 mph N/A   Clear
12:35 PM 71.6 °F 53.6 °F 53% 29.95 in 10.0 mi SSW 12.7 mph 20.7 mph N/A   Clear
12:55 PM 73.4 °F 53.6 °F 50% 29.93 in 10.0 mi SSW 6.9 mph 21.9 mph N/A   Clear
1:15 PM 75.2 °F 53.6 °F 47% 29.91 in 10.0 mi SSW 12.7 mph 19.6 mph N/A   Clear
1:35 PM 77.0 °F 53.6 °F 44% 29.90 in 10.0 mi SSW 12.7 mph 18.4 mph N/A   Clear
1:55 PM 77.0 °F 53.6 °F 44% 29.89 in 10.0 mi SSW 10.4 mph 23.0 mph N/A   Clear
2:15 PM 77.0 °F 51.8 °F 41% 29.89 in 10.0 mi SSW 4.6 mph - N/A   Clear
2:35 PM 77.0 °F 51.8 °F 41% 29.88 in 10.0 mi SW 3.5 mph 20.7 mph N/A   Clear
2:55 PM 77.0 °F 53.6 °F 44% 29.87 in 10.0 mi SSW 8.1 mph 16.1 mph N/A   Clear
3:15 PM 77.0 °F 53.6 °F 44% 29.87 in 10.0 mi SSW 9.2 mph 17.3 mph N/A   Clear
3:35 PM 75.2 °F 53.6 °F 47% 29.86 in 10.0 mi SW 11.5 mph 24.2 mph N/A   Clear
3:55 PM 75.2 °F 53.6 °F 47% 29.87 in 10.0 mi SW 4.6 mph 21.9 mph N/A   Clear
4:15 PM 75.2 °F 53.6 °F 47% 29.87 in 10.0 mi SW 17.3 mph 24.2 mph N/A   Clear
4:35 PM 75.2 °F 53.6 °F 47% 29.88 in 10.0 mi SW 9.2 mph 24.2 mph N/A   Clear
4:55 PM 73.4 °F 53.6 °F 50% 29.88 in 10.0 mi SSW 12.7 mph 20.7 mph N/A   Clear
5:15 PM 73.4 °F 53.6 °F 50% 29.89 in 10.0 mi SW 8.1 mph 23.0 mph N/A   Clear
5:35 PM 71.6 °F 53.6 °F 53% 29.89 in 10.0 mi SSW 10.4 mph 20.7 mph N/A   Clear
5:55 PM 71.6 °F 53.6 °F 53% 29.90 in 10.0 mi SW 8.1 mph - N/A   Clear
6:15 PM 69.8 °F 53.6 °F 56% 29.90 in 10.0 mi SSW 9.2 mph - N/A   Clear
6:35 PM 68.0 °F 53.6 °F 60% 29.91 in 10.0 mi SSW 5.8 mph - N/A   Clear
6:55 PM 68.0 °F 53.6 °F 60% 29.91 in 10.0 mi Calm Calm - N/A   Clear
7:15 PM 66.2 °F 53.6 °F 64% 29.93 in 10.0 mi Calm Calm - N/A   Clear
7:35 PM 66.2 °F 55.4 °F 68% 29.93 in 10.0 mi SW 10.4 mph 21.9 mph N/A   Clear
7:55 PM 64.4 °F 57.2 °F 77% 29.93 in 10.0 mi SW 10.4 mph - N/A   Clear
8:15 PM 64.4 °F 57.2 °F 77% 29.94 in 10.0 mi SW 5.8 mph - N/A   Clear
8:35 PM 64.4 °F 57.2 °F 77% 29.94 in 10.0 mi SSW 4.6 mph - N/A   Clear
8:55 PM 64.4 °F 59.0 °F 83% 29.94 in 10.0 mi SSW 10.4 mph 16.1 mph N/A   Clear
9:15 PM 64.4 °F 59.0 °F 83% 29.95 in 10.0 mi SSW 10.4 mph 18.4 mph N/A   Clear
9:35 PM 62.6 °F 59.0 °F 88% 29.95 in 10.0 mi SW 8.1 mph - N/A   Clear
9:55 PM 62.6 °F 59.0 °F 88% 29.96 in 10.0 mi SSW 5.8 mph 16.1 mph N/A   Clear
10:15 PM 62.6 °F 60.8 °F 94% 29.96 in 10.0 mi SSW 11.5 mph 18.4 mph N/A   Clear
10:35 PM 62.6 °F 60.8 °F 94% 29.97 in 10.0 mi SSW 6.9 mph - N/A   Clear
10:55 PM 62.6 °F 60.8 °F 94% 29.98 in 10.0 mi WSW 9.2 mph - N/A   Scattered Clouds
11:15 PM 62.6 °F 60.8 °F 94% 29.99 in 10.0 mi West 10.4 mph - N/A   Mostly Cloudy
11:35 PM 62.6 °F 60.8 °F 94% 29.99 in 10.0 mi West 11.5 mph 19.6 mph N/A   Overcast
11:55 PM 62.6 °F 59.0 °F 88% 29.99 in 10.0 mi West 10.4 mph - N/A   Scattered Clouds